Grass Valley, CA

3:06 AM PST on December 14, 2019 (GMT -0800)
Grass Valley

Weather History for KGOO - October, 2019

Change the Weather History Date:

Thursday, October 10, 2019

  Actual Average (KAUN) Record (KAUN)
Temperature  
Mean Temperature 62 °F -  
Max Temperature 73 °F 78 °F 92 °F (1951)
Min Temperature 51 °F 52 °F 33 °F (2008)
Degree Days  
Heating Degree Days 3    
Growing Degree Days 12 (Base 50)    
Moisture  
Dew Point 9 °F    
Average Humidity 11    
Maximum Humidity 18    
Minimum Humidity 7    
Precipitation  
Precipitation 0.00 in - - ()
Sea Level Pressure  
Sea Level Pressure 30.03 in    
Wind  
Wind Speed 7 mph ()    
Max Wind Speed 15 mph    
Max Gust Speed 22 mph    
Visibility 10.0 miles    
Events      
Averages and records for this station are not official NWS values.
T = Trace of Precipitation, MM = Missing Value Source: Averaged Metar Reports

Daily Weather History Graph

Daily Weather History Graph

Search for Another Location

Airport or City:

Astronomy

Oct. 10, 2019 Rise Set
Actual Time 7:08 AM PDT 6:32 PM PDT
Civil Twilight 6:41 AM PDT 6:59 PM PDT
Nautical Twilight 6:10 AM PDT 7:30 PM PDT
Astronomical Twilight 5:39 AM PDT 8:01 PM PDT
Moon 5:35 PM PDT (10/10) 3:59 AM PDT (10/10)
Length of Visible Light 12h 17m
Length of Day
11h 24m
Waxing Gibbous, 91% of the Moon is Illuminated
Oct 10
Waxing Gibbous
Oct 13
Full
Oct 21
Last Quarter
Oct 27
New
Nov 4
First Quarter

Hourly Weather History & Observations

Time (PDT) Temp. Dew Point Humidity Pressure Visibility Wind Dir Wind Speed Gust Speed Precip Events Conditions
6:55 AM 51.8 °F -4.0 °F 10% 30.00 in - East 15.0 mph - N/A   Unknown
7:15 AM 51.8 °F -4.0 °F 10% 30.00 in 10.0 mi East 11.5 mph 18.4 mph N/A   Unknown
7:35 AM 51.8 °F -4.0 °F 10% 30.01 in 10.0 mi ENE 10.4 mph 17.3 mph N/A   Unknown
7:55 AM 53.6 °F -5.8 °F 9% 30.01 in 10.0 mi East 13.8 mph - N/A   Unknown
8:15 AM 55.4 °F -5.8 °F 8% 30.02 in 10.0 mi ENE 9.2 mph 21.9 mph N/A   Unknown
8:35 AM 57.2 °F -4.0 °F 8% 30.02 in 10.0 mi ENE 8.1 mph 17.3 mph N/A   Unknown
8:55 AM 59.0 °F -2.2 °F 8% 30.03 in 10.0 mi East 11.5 mph - N/A   Unknown
9:15 AM 60.8 °F -0.4 °F 8% 30.04 in 10.0 mi ESE 9.2 mph - N/A   Unknown
9:35 AM 60.8 °F 5.0 °F 11% 30.04 in 10.0 mi Variable 5.8 mph - N/A   Unknown
9:55 AM 62.6 °F 3.2 °F 9% 30.04 in 10.0 mi ESE 8.1 mph 20.7 mph N/A   Unknown
10:15 AM 62.6 °F -0.4 °F 8% 30.04 in 10.0 mi ESE 10.4 mph 17.3 mph N/A   Unknown
10:35 AM 64.4 °F 5.0 °F 10% 30.05 in 10.0 mi Variable 5.8 mph - N/A   Unknown
10:55 AM 64.4 °F -0.4 °F 7% 30.05 in 10.0 mi Variable 5.8 mph - N/A   Unknown
11:15 AM 66.2 °F 5.0 °F 9% 30.05 in 10.0 mi Variable 5.8 mph - N/A   Unknown
11:35 AM 66.2 °F 6.8 °F 10% 30.05 in 10.0 mi Calm Calm - N/A   Unknown
11:55 AM 66.2 °F 17.6 °F 15% 30.05 in 10.0 mi West 6.9 mph - N/A   Unknown
12:15 PM 66.2 °F 15.8 °F 14% 30.06 in 10.0 mi WNW 6.9 mph - N/A   Unknown
12:35 PM 66.2 °F 15.8 °F 14% 30.05 in 10.0 mi West 3.5 mph - N/A   Unknown
12:55 PM 68.0 °F 15.8 °F 13% 30.05 in 10.0 mi Calm Calm - N/A   Unknown
1:15 PM 69.8 °F 15.8 °F 13% 30.04 in 10.0 mi Calm Calm - N/A   Unknown
1:35 PM 73.4 °F 14.0 °F 10% 30.03 in 10.0 mi East 4.6 mph - N/A   Unknown
1:55 PM 71.6 °F 10.4 °F 9% 30.03 in 10.0 mi Calm Calm - N/A   Unknown
2:15 PM 73.4 °F 12.2 °F 10% 30.02 in 10.0 mi Calm Calm - N/A   Unknown
2:35 PM 71.6 °F 17.6 °F 13% 30.02 in 10.0 mi Calm Calm - N/A   Unknown
2:55 PM 71.6 °F 15.8 °F 12% 30.02 in 10.0 mi West 8.1 mph - N/A   Unknown
3:15 PM 71.6 °F 17.6 °F 13% 30.02 in 10.0 mi West 6.9 mph - N/A   Unknown
3:35 PM 71.6 °F 19.4 °F 14% 30.02 in 10.0 mi Variable 5.8 mph - N/A   Unknown
3:55 PM 71.6 °F 17.6 °F 13% 30.02 in 10.0 mi West 4.6 mph - N/A   Unknown
4:15 PM 71.6 °F 17.6 °F 13% 30.02 in 10.0 mi WSW 4.6 mph - N/A   Unknown
4:35 PM 71.6 °F 19.4 °F 14% 30.02 in 10.0 mi Variable 4.6 mph - N/A   Unknown
4:55 PM 71.6 °F 17.6 °F 13% 30.02 in 10.0 mi Variable 3.5 mph - N/A   Unknown
5:15 PM 69.8 °F 19.4 °F 15% 30.02 in 10.0 mi Calm Calm - N/A   Unknown
5:35 PM 68.0 °F 21.2 °F 17% 30.02 in 10.0 mi Calm Calm - N/A   Unknown
5:45 PM 66.2 °F 21.2 °F 18% 30.02 in 10.0 mi Calm Calm - N/A   Unknown